Location: Hamilton
(37.7830°S, 175.2830°E)
Time: 11:57:19
(UTC+12:00)

ISS - Visible Passes

Search period start: 17 May 2021 00:00
Search period end: 27 May 2021 00:00
Orbit: 417 x 422 km, 51.6° (Epoch: 16 May)

Date Brightness Start Highest point End Pass type
(mag) Time Alt. Az. Time Alt. Az. Time Alt. Az.
19 May -0.6 06:26:24 10° N 06:28:47 18° NE 06:31:12 10° E visible
21 May -3.0 06:27:03 10° NW 06:30:25 58° NE 06:33:49 10° ESE visible
22 May -1.9 05:39:58 10° NNW 05:43:02 32° NE 05:46:09 10° ESE visible
23 May -1.1 04:55:42 18° NE 04:55:43 18° NE 04:58:08 10° E visible
23 May -3.3 06:28:59 10° WNW 06:32:17 44° SW 06:35:37 10° SE visible
24 May -3.9 05:44:15 60° WNW 05:44:46 76° SW 05:48:13 10° SE visible
25 May -1.2 04:59:28 20° ESE 04:59:28 20° ESE 05:00:43 10° ESE visible
25 May -2.1 06:32:28 13° WSW 06:34:23 20° SSW 06:37:00 10° SSE visible
26 May -2.3 05:47:27 26° S 05:47:27 26° S 05:49:47 10° SSE visible
